Time,TemperatureF,DewpointF,PressureIn,WindDirection,WindDirectionDegrees,WindSpeedMPH,WindSpeedGustMPH,Humidity,HourlyPrecipIn,Conditions,Clouds,dailyrainin,SoftwareType,DateUTC
2013-01-12 00:32:00,37.0,36.0,-100.00,WNW,285,2.0,3.0,97,-99.99,,,-99.99,,2013-01-12 05:32:00,
2013-01-12 00:42:00,37.0,36.0,-100.00,West,260,1.0,5.0,97,-99.99,,,-99.99,,2013-01-12 05:42:00,
2013-01-12 00:52:00,37.0,36.0,-100.00,West,280,1.0,2.0,97,-99.99,,,-99.99,,2013-01-12 05:52:00,
2013-01-12 01:03:00,37.0,36.0,-100.00,SSW,210,1.0,6.0,97,-99.99,,,-99.99,,2013-01-12 06:03:00,
2013-01-12 01:12:00,37.0,36.0,-100.00,West,270,2.0,6.0,97,-99.99,,,-99.99,,2013-01-12 06:12:00,
2013-01-12 01:22:00,37.0,36.0,-100.00,West,275,2.0,5.0,97,-99.99,,,-99.99,,2013-01-12 06:22:00,
2013-01-12 01:33:00,37.0,36.0,-100.00,West,280,2.0,6.0,97,-99.99,,,-99.99,,2013-01-12 06:33:00,
2013-01-12 01:43:00,37.0,36.0,-100.00,West,275,1.0,5.0,97,-99.99,,,-99.99,,2013-01-12 06:43:00,
2013-01-12 01:52:00,37.0,36.0,-100.00,South,185,1.0,3.0,97,-99.99,,,-99.99,,2013-01-12 06:52:00,
2013-01-12 02:02:00,37.0,36.0,-100.00,West,270,2.0,6.0,97,-99.99,,,-99.99,,2013-01-12 07:02:00,
2013-01-12 02:12:00,37.0,37.0,-100.00,West,280,2.0,6.0,98,-99.99,,,-99.99,,2013-01-12 07:12:00,
2013-01-12 02:22:00,37.0,37.0,-100.00,West,280,2.0,6.0,97,-99.99,,,-99.99,,2013-01-12 07:22:00,
2013-01-12 02:32:00,37.0,37.0,-100.00,West,265,3.0,5.0,98,-99.99,,,-99.99,,2013-01-12 07:32:00,
2013-01-12 02:42:00,37.0,37.0,-100.00,SW,235,2.0,6.0,98,-99.99,,,-99.99,,2013-01-12 07:42:00,
2013-01-12 02:52:00,38.0,37.0,-100.00,WSW,255,2.0,5.0,98,-99.99,,,-99.99,,2013-01-12 07:52:00,
2013-01-12 03:02:00,38.0,37.0,-100.00,NW,305,1.0,2.0,98,-99.99,,,-99.99,,2013-01-12 08:02:00,
2013-01-12 04:02:00,38.0,37.0,-100.00,SSW,205,0.0,1.0,98,-99.99,,,-99.99,,2013-01-12 09:02:00,
2013-01-12 04:12:00,38.0,37.0,-100.00,WSW,250,1.0,2.0,98,-99.99,,,-99.99,,2013-01-12 09:12:00,
2013-01-12 04:22:00,38.0,37.0,-100.00,WNW,290,0.0,2.0,98,-99.99,,,-99.99,,2013-01-12 09:22:00,
2013-01-12 04:32:00,38.0,38.0,-100.00,ESE,115,0.0,2.0,98,-99.99,,,-99.99,,2013-01-12 09:32:00,
2013-01-12 04:42:00,38.0,38.0,-100.00,SSE,165,1.0,2.0,98,-99.99,,,-99.99,,2013-01-12 09:42:00,
2013-01-12 04:53:00,38.0,38.0,-100.00,NNW,340,0.0,2.0,98,-99.99,,,-99.99,,2013-01-12 09:53:00,
2013-01-12 05:02:00,38.0,38.0,-100.00,SSW,195,0.0,1.0,98,-99.99,,,-99.99,,2013-01-12 10:02:00,
2013-01-12 05:12:00,38.0,38.0,-100.00,SW,230,0.0,1.0,99,-99.99,,,-99.99,,2013-01-12 10:12:00,
2013-01-12 05:22:00,38.0,37.0,-100.00,SSE,150,0.0,1.0,98,-99.99,,,-99.99,,2013-01-12 10:22:00,
2013-01-12 07:03:00,37.0,37.0,-100.00,East,100,0.0,1.0,99,-99.99,,,-99.99,,2013-01-12 12:03:00,
2013-01-12 07:12:00,38.0,38.0,-100.00,West,265,1.0,1.0,99,-99.99,,,-99.99,,2013-01-12 12:12:00,
2013-01-12 07:22:00,38.0,38.0,-100.00,ESE,115,1.0,1.0,99,-99.99,,,-99.99,,2013-01-12 12:22:00,
2013-01-12 07:33:00,38.0,38.0,-100.00,ESE,120,1.0,2.0,99,-99.99,,,-99.99,,2013-01-12 12:33:00,
2013-01-12 07:43:00,38.0,38.0,-100.00,NNE,15,1.0,3.0,99,-99.99,,,-99.99,,2013-01-12 12:43:00,
2013-01-12 07:52:00,38.0,38.0,-100.00,South,180,0.0,2.0,99,-99.99,,,-99.99,,2013-01-12 12:52:00,
2013-01-12 08:02:00,38.0,38.0,-100.00,NW,310,0.0,2.0,99,-99.99,,,-99.99,,2013-01-12 13:02:00,
2013-01-12 08:12:00,39.0,39.0,-100.00,NE,50,1.0,2.0,99,-99.99,,,-99.99,,2013-01-12 13:12:00,
2013-01-12 08:23:00,39.0,39.0,-100.00,NE,50,1.0,3.0,99,-99.99,,,-99.99,,2013-01-12 13:23:00,
2013-01-12 08:33:00,39.0,38.0,-100.00,SSW,195,0.0,2.0,99,-99.99,,,-99.99,,2013-01-12 13:33:00,
2013-01-12 08:43:00,39.0,39.0,-100.00,ENE,70,1.0,3.0,99,-99.99,,,-99.99,,2013-01-12 13:43:00,
2013-01-12 08:53:00,39.0,39.0,-100.00,North,10,1.0,3.0,99,-99.99,,,-99.99,,2013-01-12 13:53:00,
2013-01-12 09:02:00,39.0,39.0,-100.00,WNW,290,1.0,2.0,99,-99.99,,,-99.99,,2013-01-12 14:02:00,
2013-01-12 09:12:00,39.0,39.0,-100.00,West,270,1.0,2.0,99,-99.99,,,-99.99,,2013-01-12 14:12:00,
2013-01-12 09:22:00,40.0,39.0,-100.00,NNE,20,1.0,3.0,99,-99.99,,,-99.99,,2013-01-12 14:22:00,
2013-01-12 09:33:00,40.0,39.0,-100.00,ENE,65,2.0,3.0,99,-99.99,,,-99.99,,2013-01-12 14:33:00,
2013-01-12 09:43:00,40.0,39.0,-100.00,NE,35,1.0,3.0,99,-99.99,,,-99.99,,2013-01-12 14:43:00,
2013-01-12 09:53:00,40.0,40.0,-100.00,East,95,1.0,5.0,99,-99.99,,,-99.99,,2013-01-12 14:53:00,
2013-01-12 10:03:00,40.0,40.0,-100.00,SW,230,0.0,2.0,99,-99.99,,,-99.99,,2013-01-12 15:03:00,
2013-01-12 12:02:00,42.0,41.0,-100.00,ESE,105,1.0,5.0,97,-99.99,,,-99.99,,2013-01-12 17:02:00,
2013-01-12 12:12:00,42.0,41.0,-100.00,South,170,0.0,5.0,97,-99.99,,,-99.99,,2013-01-12 17:12:00,
2013-01-12 12:23:00,42.0,41.0,-100.00,SSE,150,1.0,3.0,97,-99.99,,,-99.99,,2013-01-12 17:23:00,
2013-01-12 12:33:00,42.0,41.0,-100.00,West,265,1.0,3.0,97,-99.99,,,-99.99,,2013-01-12 17:33:00,
2013-01-12 12:43:00,42.0,41.0,-100.00,West,280,2.0,3.0,97,-99.99,,,-99.99,,2013-01-12 17:43:00,
2013-01-12 12:53:00,42.0,41.0,-100.00,WNW,300,2.0,6.0,97,-99.99,,,-99.99,,2013-01-12 17:53:00,
2013-01-12 13:03:00,43.0,42.0,-100.00,WNW,285,2.0,5.0,97,-99.99,,,-99.99,,2013-01-12 18:03:00,
2013-01-12 13:12:00,43.0,42.0,-100.00,WNW,300,3.0,5.0,97,-99.99,,,-99.99,,2013-01-12 18:12:00,
2013-01-12 13:23:00,43.0,42.0,-100.00,WSW,255,2.0,6.0,96,-99.99,,,-99.99,,2013-01-12 18:23:00,
2013-01-12 13:33:00,43.0,42.0,-100.00,SW,235,1.0,3.0,96,-99.99,,,-99.99,,2013-01-12 18:33:00,
2013-01-12 13:43:00,43.0,42.0,-100.00,SE,140,1.0,3.0,96,-99.99,,,-99.99,,2013-01-12 18:43:00,
2013-01-12 13:52:00,43.0,42.0,-100.00,SE,145,1.0,2.0,97,-99.99,,,-99.99,,2013-01-12 18:52:00,
2013-01-12 14:03:00,44.0,43.0,-100.00,NNE,20,2.0,3.0,97,-99.99,,,-99.99,,2013-01-12 19:03:00,
2013-01-12 14:12:00,43.0,42.0,-100.00,SSW,205,1.0,3.0,96,-99.99,,,-99.99,,2013-01-12 19:12:00,
2013-01-12 14:23:00,44.0,43.0,-100.00,ENE,60,2.0,5.0,96,-99.99,,,-99.99,,2013-01-12 19:23:00,
2013-01-12 14:33:00,44.0,43.0,-100.00,NNE,15,1.0,5.0,96,-99.99,,,-99.99,,2013-01-12 19:33:00,
2013-01-12 14:43:00,44.0,43.0,-100.00,NW,315,2.0,3.0,96,-99.99,,,-99.99,,2013-01-12 19:43:00,
2013-01-12 14:52:00,44.0,43.0,-100.00,NE,40,1.0,5.0,96,-99.99,,,-99.99,,2013-01-12 19:52:00,
2013-01-12 15:03:00,44.0,42.0,-100.00,South,180,1.0,2.0,96,-99.99,,,-99.99,,2013-01-12 20:03:00,
2013-01-12 15:33:00,44.0,43.0,-100.00,WNW,285,0.0,2.0,97,-99.99,,,-99.99,,2013-01-12 20:33:00,
2013-01-12 17:33:00,43.0,42.0,-100.00,NE,45,1.0,6.0,98,-99.99,,,-99.99,,2013-01-12 22:33:00,
2013-01-12 17:43:00,43.0,42.0,-100.00,WNW,300,1.0,3.0,98,-99.99,,,-99.99,,2013-01-12 22:43:00,
2013-01-12 17:52:00,43.0,42.0,-100.00,NE,50,2.0,5.0,98,-99.99,,,-99.99,,2013-01-12 22:52:00,
2013-01-12 18:03:00,43.0,42.0,-100.00,East,85,1.0,3.0,98,-99.99,,,-99.99,,2013-01-12 23:03:00,
2013-01-12 18:13:00,43.0,42.0,-100.00,North,0,1.0,5.0,98,-99.99,,,-99.99,,2013-01-12 23:13:00,
2013-01-12 18:23:00,43.0,42.0,-100.00,North,0,1.0,5.0,98,-99.99,,,-99.99,,2013-01-12 23:23:00,
2013-01-12 18:33:00,43.0,43.0,-100.00,NW,320,1.0,3.0,99,-99.99,,,-99.99,,2013-01-12 23:33:00,
2013-01-12 18:43:00,43.0,42.0,-100.00,NNE,20,1.0,5.0,98,-99.99,,,-99.99,,2013-01-12 23:43:00,
2013-01-12 18:53:00,43.0,42.0,-100.00,West,280,1.0,3.0,99,-99.99,,,-99.99,,2013-01-12 23:53:00,
2013-01-12 19:03:00,43.0,42.0,-100.00,NW,325,1.0,5.0,98,-99.99,,,-99.99,,2013-01-13 00:03:00,
2013-01-12 19:12:00,43.0,42.0,-100.00,WNW,295,2.0,3.0,99,-99.99,,,-99.99,,2013-01-13 00:12:00,
2013-01-12 19:43:00,43.0,42.0,-100.00,SSW,200,1.0,2.0,98,-99.99,,,-99.99,,2013-01-13 00:43:00,
2013-01-12 19:52:00,42.0,42.0,-100.00,WNW,295,1.0,2.0,99,-99.99,,,-99.99,,2013-01-13 00:52:00,
2013-01-12 20:03:00,42.0,42.0,-100.00,NW,310,1.0,2.0,99,-99.99,,,-99.99,,2013-01-13 01:03:00,
2013-01-12 20:12:00,42.0,42.0,-100.00,WSW,245,1.0,3.0,98,-99.99,,,-99.99,,2013-01-13 01:12:00,
2013-01-12 20:23:00,42.0,42.0,-100.00,NW,305,1.0,3.0,99,-99.99,,,-99.99,,2013-01-13 01:23:00,
2013-01-12 20:33:00,42.0,42.0,-100.00,NW,305,2.0,3.0,99,-99.99,,,-99.99,,2013-01-13 01:33:00,
2013-01-12 20:43:00,42.0,42.0,-100.00,WSW,250,1.0,3.0,99,-99.99,,,-99.99,,2013-01-13 01:43:00,
2013-01-12 20:52:00,42.0,42.0,-100.00,North,355,1.0,2.0,99,-99.99,,,-99.99,,2013-01-13 01:52:00,
2013-01-12 21:03:00,42.0,42.0,-100.00,NNE,25,1.0,2.0,99,-99.99,,,-99.99,,2013-01-13 02:03:00,
2013-01-12 21:13:00,42.0,42.0,-100.00,NW,305,1.0,3.0,99,-99.99,,,-99.99,,2013-01-13 02:13:00,
2013-01-12 21:23:00,42.0,42.0,-100.00,NNW,340,1.0,2.0,99,-99.99,,,-99.99,,2013-01-13 02:23:00,
2013-01-12 21:33:00,42.0,42.0,-100.00,ENE,65,1.0,2.0,99,-99.99,,,-99.99,,2013-01-13 02:33:00,
2013-01-12 21:43:00,42.0,42.0,-100.00,North,0,0.0,2.0,99,-99.99,,,-99.99,,2013-01-13 02:43:00,
2013-01-12 21:53:00,42.0,42.0,-100.00,WNW,290,1.0,2.0,99,-99.99,,,-99.99,,2013-01-13 02:53:00,
2013-01-12 22:03:00,42.0,42.0,-100.00,West,280,1.0,2.0,99,-99.99,,,-99.99,,2013-01-13 03:03:00,
2013-01-12 22:12:00,42.0,42.0,-100.00,West,280,1.0,2.0,99,-99.99,,,-99.99,,2013-01-13 03:12:00,
2013-01-12 22:22:00,42.0,42.0,-100.00,WNW,300,1.0,3.0,99,-99.99,,,-99.99,,2013-01-13 03:22:00,
2013-01-12 22:33:00,42.0,42.0,-100.00,NNE,30,1.0,3.0,98,-99.99,,,-99.99,,2013-01-13 03:33:00,
2013-01-12 22:43:00,42.0,42.0,-100.00,NW,305,0.0,2.0,99,-99.99,,,-99.99,,2013-01-13 03:43:00,
2013-01-12 22:52:00,42.0,42.0,-100.00,North,350,1.0,2.0,99,-99.99,,,-99.99,,2013-01-13 03:52:00,
2013-01-12 23:03:00,42.0,42.0,-100.00,North,350,1.0,2.0,99,-99.99,,,-99.99,,2013-01-13 04:03:00,
2013-01-12 23:12:00,42.0,42.0,-100.00,West,275,1.0,3.0,99,-99.99,,,-99.99,,2013-01-13 04:12:00,